When you browse on this site, cookies collect data to enhance your experience and personalize the content and advertising you see.
Visit our Privacy Policy to learn more. By continuing to use the site, you agree to this use of cookies and data.
  • In Hungary
  • List of Countries
  • For 7 days
  • Water Temperature
  • Weather Map
  • News
  • Weather Widgets
  • user-avatar
    Login

    Hourly Weather Igls

    Today, 27 May, Wednesday

    Time Temperature Precipitation Wind Pressure Humidity
    00:00 +6°C° 0 mm 1 mps 694 mmHg 94%
    01:00 +6°C° 0 mm 1 mps 694 mmHg 94%
    02:00 +5°C° 0 mm 1 mps 694 mmHg 93%
    03:00 +5°C° 0 mm 1 mps 694 mmHg 93%
    04:00 +5°C° 0 mm 1 mps 694 mmHg 92%
    05:00 +7°C° 0 mm 1 mps 694 mmHg 84%
    06:00 +9°C° 0 mm 1 mps 694 mmHg 76%
    07:00 +11°C° 0 mm 1 mps 694 mmHg 68%
    08:00 +13°C° 0 mm 2 mps 694 mmHg 58%
    09:00 +15°C° 0 mm 2 mps 694 mmHg 49%
    10:00 +16°C° 0 mm 2 mps 695 mmHg 39%
    11:00 +17°C° 0 mm 2 mps 694 mmHg 37%
    12:00 +18°C° 0 mm 2 mps 694 mmHg 35%
    13:00 +19°C° 0 mm 2 mps 694 mmHg 33%
    14:00 +19°C° 0 mm 2 mps 694 mmHg 35%
    15:00 +19°C° 0 mm 2 mps 693 mmHg 37%
    16:00 +19°C° 0 mm 2 mps 693 mmHg 39%
    17:00 +17°C° 0 mm 2 mps 693 mmHg 48%
    18:00 +16°C° 0 mm 2 mps 693 mmHg 58%
    19:00 +14°C° 0 mm 2 mps 692 mmHg 67%
    20:00 +12°C° 0 mm 1 mps 692 mmHg 75%
    21:00 +10°C° 0 mm 1 mps 692 mmHg 82%
    22:00 +8°C° 0 mm 1 mps 692 mmHg 90%
    23:00 +8°C° 0 mm 1 mps 692 mmHg 90%

    Tomorrow, 28 May, Thursday

    Time Temperature Precipitation Wind Pressure Humidity
    00:00 +7°C° 0 mm 1 mps 692 mmHg 90%
    01:00 +7°C° 0 mm 1 mps 692 mmHg 90%
    02:00 +7°C° 0 mm 1 mps 692 mmHg 89%
    03:00 +7°C° 0 mm 1 mps 691 mmHg 89%
    04:00 +7°C° 0 mm 1 mps 691 mmHg 88%
    05:00 +9°C° 0 mm 1 mps 691 mmHg 81%
    06:00 +11°C° 0 mm 1 mps 691 mmHg 74%
    07:00 +12°C° 0 mm 1 mps 691 mmHg 67%
    08:00 +14°C° 0 mm 1 mps 691 mmHg 61%
    09:00 +15°C° 0 mm 2 mps 691 mmHg 55%
    10:00 +16°C° 0 mm 2 mps 691 mmHg 50%
    11:00 +16°C° 0.4 mm 2 mps 691 mmHg 60%
    12:00 +15°C° 0.4 mm 2 mps 690 mmHg 69%
    13:00 +13°C° 0.4 mm 3 mps 690 mmHg 79%
    14:00 +14°C° 0.5 mm 2 mps 690 mmHg 78%
    15:00 +15°C° 0.5 mm 2 mps 689 mmHg 77%
    16:00 +15°C° 0.5 mm 2 mps 689 mmHg 76%
    17:00 +14°C° 0.2 mm 2 mps 689 mmHg 80%
    18:00 +13°C° 0.2 mm 2 mps 689 mmHg 85%
    19:00 +12°C° 0.2 mm 2 mps 689 mmHg 89%
    20:00 +10°C° 0.1 mm 2 mps 689 mmHg 92%
    21:00 +9°C° 0.1 mm 1 mps 689 mmHg 94%
    22:00 +8°C° 0.1 mm 1 mps 689 mmHg 97%
    23:00 +8°C° 0 mm 1 mps 689 mmHg 96%

    Day after tomorrow, 29 May, Friday

    Time Temperature Precipitation Wind Pressure Humidity
    00:00 +8°C° 0 mm 1 mps 689 mmHg 96%
    01:00 +8°C° 0 mm 1 mps 689 mmHg 96%
    02:00 +7°C° 0 mm 1 mps 689 mmHg 96%
    03:00 +7°C° 0 mm 1 mps 688 mmHg 95%
    04:00 +6°C° 0 mm 1 mps 688 mmHg 95%
    05:00 +7°C° 0 mm 1 mps 688 mmHg 92%
    06:00 +8°C° 0 mm 1 mps 688 mmHg 88%
    07:00 +9°C° 0 mm 1 mps 688 mmHg 84%
    08:00 +10°C° 0 mm 2 mps 688 mmHg 73%
    09:00 +13°C° 0 mm 2 mps 688 mmHg 63%
    10:00 +14°C° 0 mm 2 mps 688 mmHg 52%
    11:00 +15°C° 0 mm 2 mps 688 mmHg 51%
    12:00 +15°C° 0 mm 2 mps 688 mmHg 50%
    13:00 +16°C° 0 mm 3 mps 687 mmHg 49%
    14:00 +16°C° 0 mm 3 mps 687 mmHg 50%
    15:00 +16°C° 0 mm 3 mps 686 mmHg 52%
    16:00 +16°C° 0 mm 3 mps 686 mmHg 54%
    17:00 +14°C° 0.1 mm 2 mps 686 mmHg 62%
    18:00 +13°C° 0.1 mm 2 mps 686 mmHg 70%
    19:00 +12°C° 0.1 mm 2 mps 686 mmHg 77%
    20:00 +11°C° 0 mm 1 mps 686 mmHg 84%
    21:00 +9°C° 0 mm 1 mps 686 mmHg 90%
    22:00 +6°C° 0 mm 0 mps 686 mmHg 97%
    23:00 +6°C° 0 mm 0 mps 686 mmHg 97%

    30 May, Saturday

    Time Temperature Precipitation Wind Pressure Humidity
    00:00 +6°C° 0 mm 0 mps 686 mmHg 97%
    01:00 +6°C° 0 mm 0 mps 686 mmHg 96%
    02:00 +6°C° 0 mm 0 mps 685 mmHg 96%
    03:00 +6°C° 0 mm 0 mps 685 mmHg 96%
    04:00 +5°C° 0 mm 0 mps 685 mmHg 96%
    05:00 +8°C° 0 mm 1 mps 685 mmHg 92%
    06:00 +9°C° 0 mm 1 mps 685 mmHg 88%
    07:00 +10°C° 0 mm 1 mps 686 mmHg 85%
    08:00 +11°C° 0.1 mm 1 mps 685 mmHg 82%
    09:00 +10°C° 0.1 mm 2 mps 685 mmHg 80%
    10:00 +12°C° 0.1 mm 2 mps 685 mmHg 77%
    11:00 +13°C° 0.1 mm 2 mps 685 mmHg 74%
    12:00 +13°C° 0.1 mm 2 mps 685 mmHg 70%
    13:00 +14°C° 0.1 mm 2 mps 685 mmHg 67%
    14:00 +14°C° 0.1 mm 2 mps 685 mmHg 66%
    15:00 +14°C° 0.1 mm 2 mps 685 mmHg 65%
    16:00 +14°C° 0.1 mm 2 mps 685 mmHg 64%
    17:00 +13°C° 0.1 mm 2 mps 685 mmHg 69%
    18:00 +12°C° 0.1 mm 2 mps 685 mmHg 74%
    19:00 +10°C° 0.1 mm 2 mps 685 mmHg 80%
    20:00 +9°C° 0 mm 1 mps 685 mmHg 85%
    21:00 +8°C° 0 mm 1 mps 685 mmHg 91%
    22:00 +6°C° 0 mm 1 mps 685 mmHg 96%
    23:00 +6°C° 0 mm 1 mps 685 mmHg 96%

    31 May, Sunday

    Time Temperature Precipitation Wind Pressure Humidity
    00:00 +6°C° 0 mm 1 mps 685 mmHg 96%
    01:00 +6°C° 0 mm 1 mps 685 mmHg 96%
    02:00 +5°C° 0 mm 1 mps 684 mmHg 96%
    03:00 +5°C° 0 mm 1 mps 684 mmHg 95%
    04:00 +5°C° 0 mm 1 mps 684 mmHg 95%
    05:00 +7°C° 0 mm 1 mps 684 mmHg 88%
    06:00 +9°C° 0 mm 1 mps 685 mmHg 82%
    07:00 +10°C° 0 mm 1 mps 685 mmHg 75%
    08:00 +12°C° 0 mm 1 mps 685 mmHg 67%
    09:00 +14°C° 0 mm 2 mps 685 mmHg 58%
    10:00 +16°C° 0 mm 2 mps 685 mmHg 49%
    11:00 +17°C° 0 mm 2 mps 685 mmHg 47%
    12:00 +17°C° 0 mm 2 mps 685 mmHg 45%
    13:00 +18°C° 0 mm 3 mps 685 mmHg 43%
    14:00 +18°C° 0 mm 3 mps 684 mmHg 45%
    15:00 +17°C° 0 mm 3 mps 684 mmHg 48%
    16:00 +17°C° 0 mm 3 mps 684 mmHg 50%
    17:00 +16°C° 0 mm 3 mps 684 mmHg 59%
    18:00 +14°C° 0 mm 2 mps 684 mmHg 67%
    19:00 +13°C° 0 mm 2 mps 684 mmHg 75%
    20:00 +11°C° 0 mm 1 mps 684 mmHg 82%
    21:00 +10°C° 0 mm 1 mps 684 mmHg 88%
    22:00 +8°C° 0 mm 1 mps 684 mmHg 95%
    23:00 +8°C° 0 mm 1 mps 684 mmHg 95%

    1 June, Monday

    Time Temperature Precipitation Wind Pressure Humidity
    00:00 +8°C° 0 mm 1 mps 684 mmHg 96%
    01:00 +8°C° 0 mm 1 mps 684 mmHg 96%
    02:00 +8°C° 0 mm 1 mps 683 mmHg 96%
    03:00 +8°C° 0 mm 1 mps 683 mmHg 96%
    04:00 +8°C° 0 mm 1 mps 683 mmHg 95%
    05:00 +9°C° 0 mm 1 mps 683 mmHg 89%
    06:00 +11°C° 0 mm 1 mps 683 mmHg 82%
    07:00 +12°C° 0 mm 1 mps 683 mmHg 76%
    08:00 +12°C° 0.1 mm 1 mps 683 mmHg 77%
    09:00 +13°C° 0.1 mm 1 mps 683 mmHg 78%
    10:00 +13°C° 0.1 mm 1 mps 683 mmHg 79%
    11:00 +15°C° 0 mm 1 mps 683 mmHg 74%
    12:00 +16°C° 0 mm 2 mps 683 mmHg 68%
    13:00 +18°C° 0 mm 2 mps 684 mmHg 62%
    14:00 +18°C° 0 mm 2 mps 683 mmHg 61%
    15:00 +18°C° 0 mm 2 mps 683 mmHg 60%
    16:00 +19°C° 0 mm 2 mps 683 mmHg 59%
    17:00 +18°C° 0 mm 2 mps 683 mmHg 66%
    18:00 +17°C° 0 mm 2 mps 683 mmHg 73%
    19:00 +16°C° 0 mm 1 mps 683 mmHg 80%
    20:00 +14°C° 0 mm 1 mps 683 mmHg 85%
    21:00 +12°C° 0 mm 1 mps 683 mmHg 90%
    22:00 +10°C° 0 mm 1 mps 683 mmHg 95%
    23:00 +10°C° 0 mm 1 mps 683 mmHg 94%
    Show more